Portada
METAR-TAF:

METAR-TAF

Aeroports :

Milton, Massachusetts, Estats Units d'Amèrica

latitud: 42-12-44N, longitud: 071-06-53W, altitud: 192 m

Observació

L'informe es va fer fa 12 minuts, a les 10:51 UTC
Vent 4 kt del Oest
Temperatura 6°C
Humitat 100%
Pressió 1013 hPa

METAR: KMQE 291051Z AUTO 26004KT 06/06 A2992 RMK AO1 SLP147 T00610061 $

Hora: 07:03 (11:03 UTC)


TAF: manca

Observacions i pronòstics meteorològics de més de 4000 aeroports (METAR i TAF).

Les estacions disponibles són els punts grocs i vermells al mapa.

Posi el ratolí al punt desitjat per veure el nom de l'estació.

Feu clic per veure les observacions i els pronòstics meteorològics.

Per canviar el mapa: feu clic els botons verds amb una creu de color negre per apropar; al botó verd amb un guió per allunyar la imatge; o en les fletxes verdes per a mapes adjacents.


METAR-TAF: